INTELSAT 33E DEB, 62003

Orbit data source: Space-Track

INTELSAT 33E DEB, 62003 is space debris in GEO originally from a launch on Wed, 24 Aug 2016 UTC launched from the French Guiana (FRGUI). Debris objects in space refer to the collection of defunct objects orbiting the Earth. Examples of debris include non-operational satellites, rocket bodies, and fragments generated from explosions, collisions, or faulty payload assembly.

Not visible in the next 10 days
Identifier
62003, 2016-053V
Orbit
GEO
Country
Flag of USUS / ITSO
Related business
Manufacturer
Boeing/ES
Mission
Spacecraft
Bus & Motor
Unknown
Mass
Unknown
Launch date (UTC)
2016-08-24 (10 years ago)
Launch vehicle
Unknown
Launch site
French Guiana (FRGUI)
Object type
Payload
Rocket body
Debris
Shape & HBR
Unknown shape, 1.1 m
Radar Cross Section
RCS unknown

Expand to show TLE details & history
Last TLE update: 23 hours ago

TLE from 23 hours ago
0 INTELSAT 33E DEB
1 62003U 16053V   26120.59858638  .00000118  00000-0  00000-0 0  9999
2 62003   1.5030  88.7042 0022590 263.2704  96.6748  1.00419050  5604
Epoch: 2026-04-30T14:21Z
TLE epoch observation values (Epoch: 2026-04-30T14:21:57.863Z)
Latitude
-0.00001°
Longitude
14.87057°
Altitude
35,755.607 km
Speed
3.075 km/s
True Right ascension
05h 55m 37s
True Declination
0° 00' 00"
Sunlit
Object was in daylight at epoch
Visualization orbit readout
Latitude
Unknown
Longitude
Unknown
Altitude
Unknown
Speed
Unknown
Apparent Right ascension
Unknown
Apparent Declination
Unknown
Sunlit
N/A
Visualization observer readout
Local Sidereal Time
20:32:39
Azimuth
Unknown
Elevation
Unknown
Doppler factor
Unknown
Orbital elements
Apogee altitude
35,841.591 km
Perigee altitude
35,651.273 km
Semi-major axis
42,124.569 km
Eccentricity
0.00226
Inclination
1.503°
RAAN
88.7042°
Arg. of periapsis
263.2704°
True anomaly
96.93182°
Mean anomaly
96.6748°
Eccentric anomaly
96.80332°
Mean motion
0.25104 °/min
Orbital period
1,434.04 mins
BSTAR
0
Loading maneuver chart data...
Computing Atmospheric mass density...
Loading historical data...
Loading historical data...
Loading historical data...
Loading historical data...
Loading historical data...
Loading historical data...
Loading historical data...

Documentation

Showing up to 5 results
|